Regional Weather Roundup
Issued by NWS

Home | Current Version | Previous Version | Text Only | Print | Product List | Glossary On
Versions: 1 2 3 4 5 6 7 8 9 10 11 12 13 14 15 16 17 18 19 20 21 22 23 24 25 26 27 28
000
ASUS42 KKEY 061510
RWRKEY

FLORIDA REGIONAL WEATHER ROUNDUP FOR THE FLORIDA KEYS
NATIONAL WEATHER SERVICE KEY WEST FLORIDA
1000 AM EST TUE DEC 06 2016

...SOUTH FLORIDA AND THE KEYS...

CITY           SKY/WX    TMP DP  RH WIND       PRES   REMARKS
FORT MYERS     CLOUDY    81  75  82 SW13      29.97R
SW REGIONAL AP MOSUNNY   82  73  74 S18       29.97R
NAPLES         MOSUNNY   81  74  79 S17       29.97S
MIAMI          PTSUNNY   81  73  76 S12       30.01R
WEST KENDALL   MOSUNNY   83  73  72 S9G17     30.01R
HOMESTEAD      MOSUNNY   82  75  78 S12       30.01R
MARATHON       SUNNY     86  76  71 S7        30.01R HX  96
BOCA CHICA NAS MOSUNNY   81  75  82 S14       30.00S
KEY WEST INTL  SUNNY     81  77  88 S12       30.01R

...INTERNATIONAL WEATHER...

CITY           SKY/WX    TMP DP  RH WIND       PRES   REMARKS
NASSAU BAHAMAS MOSUNNY   82  72  69 S9        30.06R
CANCUN MEXICO  PTSUNNY   82  77  83 SE9       29.96R HX  91
COZUMEL MEXICO MOSUNNY   84  79  84 SE10      29.94R HX  96

ADJACENT COASTAL WATERS...

STATION/POSITION TIME  SKY/WX   TEMP    WIND        PRES    WAVE
                                AIR SEA DIR/SP/G            HT/PER
                 (UTC)          (F)     (DEG/KT/KT) (MB)    (FT/S)
PULASKI SHOAL LI 1500            80     200/ 10/ 11 1015.8R
SAND KEY         1450            79     200/ 14/ 16 1016.4R
LONG KEY         1500            79 78  210/  8/ 10 1016.8R
MOLASSES REEF    1400            80 79  200/ 14/ 16 1016.7R
FOWEY ROCKS      1500            81 78  190/ 19/ 20 1017.0R

$$




USA.gov is the U.S. government's official web portal to all federal, state and local government web resources and services.